Find Starlink 31501

NORAD ID: 59359 Int'l Des: 2024-060 Owner: SPXS Country: US Constellation: starlink operational
LEOCIRCULAR

Current View

Loading 3D Globe...

About Starlink 31501

Starlink 31501 (NORAD 59359) is a starlink constellation satellite (v2 mini) launched Mar 31, 2024 by SPXS of US. It operates in LEO, CIRCULAR orbit with a mass of 730.00 kg.

About Starlink 31501

Description loading...

Upcoming Passes

Passes for default location (London). Set your location on the main map for personalized predictions.

Altitude History

Loading altitude history...

Two-Line Element Set

1 59359U 24060M 26170.97754798 .00002009 00000-0 82511-4 0 9997
2 59359 43.0028 42.4357 0001229 272.8873 87.1838 15.27584136125708
Epoch: Jun 19, 2026 • Age: 33 hours

Current Status

Altitude 487.0 km
Velocity 7.63 km/s
Sub-Earth Point 43.11°N, 79.58°E
Launch Date Mar 31, 2024
Age 2.2 years
Type internet

Technical Details

Classification Payload
Mass 730.00 kg
Dry Mass 700.00 kg
Total Mass 730.00 kg
Length 0.30 m
Diameter 4.10 m
Span 29.00 m
Shape Box + pan
Manufacturer SPXS
Bus Type Starlink V2M
Phase Status In Orbit
Owner/State SPXS/US

Most Searched